Location: Bishausen
(51.6334°N, 9.9631°E)
Time: 11:59:01
(UTC+00:00)

Aureole 3 - Pass Details

Date: 23 May 2024
Orbit: 378 x 1127 km, 82.5° (Epoch: 18 June)

Event Time Altitude Azimuth Distance (km) Brightness Sun altitude
Exits shadow 01:10:20 17° 257° (WSW) 1,045 4.4 -13.6°
Maximum altitude 01:11:31 22° 290° (WNW) 907 4.4 -13.5°
Drops below altitude 10° 01:13:57 10° 344° (NNW) 1,431 6.1 -13.3°
Sets 01:16:18 0° 1° (N) 2,344 7.7 -13.1°
